,,,PA_Meas_PMT16A,,PR_Meas_QMR101_102,,RH_Meas_QMH101,,SR_Meas_QMS101,,TA_Meas_QMH101,,GenWind,,GenWind,
date,time,status,PA,status,PR,status,RH,status,SR,status,TA,status,DirAvg,status,SpdAvg,
2008-08-30, 11:55:04,VALID,1004.2,VALID,0,VALID,96.1926,VALID,47.6668,VALID,23.7053,VALID,50,VALID,2.39687,
2008-08-30, 12:40:04,VALID,1003.49,VALID,0,VALID,96.1315,VALID,155.571,VALID,23.5691,VALID,88,VALID,1.02578,
2008-08-30, 12:41:04,VALID,1003.44,VALID,0,VALID,96.1849,VALID,205.551,VALID,23.6664,VALID,64,VALID,1.2543,
2008-08-30, 12:42:04,VALID,1003.4,VALID,0,VALID,96.2383,VALID,217.115,VALID,23.7248,VALID,51,VALID,0.533984,
2008-08-30, 12:43:04,VALID,1003.38,VALID,0,VALID,96.2841,VALID,222.948,VALID,23.8805,VALID,21,VALID,0.838672,
2008-08-30, 12:44:04,VALID,1003.37,VALID,0,VALID,96.2688,VALID,251.608,VALID,23.9584,VALID,23,VALID,1.04453,
2008-08-30, 12:45:04,VALID,1003.39,VALID,0,VALID,96.307,VALID,283.789,VALID,23.9973,VALID,23,VALID,1.00859,
2008-08-30, 12:46:04,VALID,1003.35,VALID,0,VALID,96.307,VALID,335.88,VALID,24.0557,VALID,25,VALID,0.874219,
2008-08-30, 12:47:04,VALID,1003.31,VALID,0,VALID,96.3299,VALID,394.006,VALID,24.2115,VALID,333,VALID,0.508984,
2008-08-30, 12:48:04,VALID,1003.35,VALID,0,VALID,96.3222,VALID,420.152,VALID,24.3283,VALID,356,VALID,0.522266,
2008-08-30, 12:49:04,VALID,1003.37,VALID,0,VALID,96.3222,VALID,400.944,VALID,24.4451,VALID,27,VALID,0.783594,
2008-08-30, 12:50:04,VALID,1003.32,VALID,0,VALID,96.2917,VALID,451.528,VALID,24.4062,VALID,39,VALID,0.964453,
2008-08-30, 12:51:04,VALID,1003.26,VALID,0,VALID,96.3146,VALID,465.707,VALID,24.5814,VALID,47,VALID,0.177734,
2008-08-30, 12:52:04,VALID,1003.23,VALID,0,VALID,96.2765,VALID,462.288,VALID,24.6398,VALID,3,VALID,0.294531,
2008-08-30, 12:53:04,VALID,1003.23,VALID,0,VALID,96.2841,VALID,447.706,VALID,24.7761,VALID,357,VALID,1.02148,
2008-08-30, 12:54:04,VALID,1003.24,VALID,0,VALID,96.2917,VALID,426.085,VALID,24.8151,VALID,340,VALID,0.501172,
2008-08-30, 12:55:04,VALID,1003.28,VALID,0,VALID,96.2612,VALID,400.039,VALID,24.8911,VALID,5,VALID,0.975391,
2008-08-30, 12:56:04,VALID,1003.29,VALID,0,VALID,96.2536,VALID,339.903,VALID,24.93,VALID,20,VALID,1.0418,
2008-08-30, 12:57:04,VALID,1003.3,VALID,0,VALID,96.2154,VALID,254.223,VALID,24.9495,VALID,19,VALID,1.30078,
2008-08-30, 12:58:04,VALID,1003.29,VALID,0,VALID,96.2231,VALID,213.797,VALID,24.969,VALID,8,VALID,1.08555,
2008-08-30, 12:59:04,VALID,1003.27,VALID,0,VALID,96.1773,VALID,181.516,VALID,24.8735,VALID,28,VALID,1.55195,
2008-08-30, 13:00:04,VALID,1003.26,VALID,0.5,VALID,96.1315,VALID,169.65,VALID,24.8346,VALID,25,VALID,2.02813,
2008-08-30, 13:01:04,VALID,1003.22,VALID,0,VALID,96.1086,VALID,161.705,VALID,24.7353,VALID,22,VALID,1.30664,
2008-08-30, 13:02:04,VALID,1003.25,VALID,0,VALID,96.0934,VALID,140.788,VALID,24.7177,VALID,31,VALID,1.18984,
2008-08-30, 13:03:04,VALID,1003.15,VALID,0,VALID,96.0781,VALID,131.838,VALID,24.6964,VALID,7,VALID,0.796484,
2008-08-30, 13:04:04,VALID,1003.01,VALID,0,VALID,96.101,VALID,151.247,VALID,24.7761,VALID,353,VALID,0.803516,
2008-08-30, 13:05:04,VALID,1002.97,VALID,0,VALID,96.1239,VALID,162.811,VALID,24.854,VALID,356,VALID,1.07656,
2008-08-30, 13:06:04,VALID,1002.95,VALID,0.5,VALID,96.1315,VALID,159.694,VALID,24.9709,VALID,355,VALID,1.03398,
2008-08-30, 13:07:04,VALID,1002.93,VALID,0,VALID,96.1392,VALID,148.33,VALID,24.9904,VALID,350,VALID,0.775781,
2008-08-30, 13:09:04,VALID,1002.93,VALID,0,VALID,96.0705,VALID,154.465,VALID,24.8754,VALID,336,VALID,0.571875,
2008-08-30, 13:10:04,VALID,1002.87,VALID,0,VALID,96.0781,VALID,178.499,VALID,24.8346,VALID,343,VALID,1.20078,
2008-08-30, 13:11:04,VALID,1002.82,VALID,0,VALID,96.0781,VALID,206.757,VALID,24.9125,VALID,351,VALID,1.12695,
2008-08-30, 13:12:04,VALID,1002.8,VALID,0,VALID,96.0552,VALID,218.222,VALID,24.893,VALID,357,VALID,1.13203,
2008-08-30, 13:13:04,VALID,1002.77,VALID,0,VALID,96.0629,VALID,202.132,VALID,24.9125,VALID,356,VALID,0.885547,
2008-08-30, 13:14:04,VALID,1002.73,VALID,0.5,VALID,96.04,VALID,168.845,VALID,24.7956,VALID,70,VALID,0.855469,
2008-08-30, 13:19:04,VALID,1002.35,VALID,0,VALID,95.3686,VALID,131.335,VALID,24.1726,VALID,119,VALID,1.69414,
2008-08-30, 13:20:04,VALID,1002.35,VALID,0.5,VALID,95.5441,VALID,146.118,VALID,24.231,VALID,127,VALID,2.18945,
2008-08-30, 13:21:04,VALID,1002.39,VALID,0,VALID,95.773,VALID,151.85,VALID,24.4257,VALID,101,VALID,0.944531,
2008-08-30, 13:22:04,VALID,1002.4,VALID,0,VALID,95.8035,VALID,164.219,VALID,24.3849,VALID,82,VALID,1.00859,
2008-08-30, 13:23:04,VALID,1002.41,VALID,0,VALID,95.7348,VALID,185.941,VALID,24.307,VALID,69,VALID,1.18906,
2008-08-30, 13:24:04,VALID,1002.36,VALID,0,VALID,95.7272,VALID,217.819,VALID,24.3459,VALID,89,VALID,1.08555,
2008-08-30, 13:25:04,VALID,1002.35,VALID,0,VALID,95.8035,VALID,266.391,VALID,24.3849,VALID,91,VALID,0.359375,
2008-08-30, 13:26:04,VALID,1002.42,VALID,0,VALID,95.8798,VALID,315.466,VALID,24.5212,VALID,82,VALID,0.528516,
2008-08-30, 13:27:04,VALID,1002.4,VALID,0,VALID,95.9484,VALID,345.735,VALID,24.5814,VALID,77,VALID,0.528125,
2008-08-30, 13:28:04,VALID,1002.39,VALID,0,VALID,95.9942,VALID,372.485,VALID,24.7159,VALID,60,VALID,0.392969,
2008-08-30, 13:29:04,VALID,1002.39,VALID,0,VALID,96.0171,VALID,388.776,VALID,24.7761,VALID,112,VALID,0.735547,
2008-08-30, 13:30:04,VALID,1002.4,VALID,0,VALID,96.0247,VALID,390.788,VALID,24.7956,VALID,92,VALID,1.5125,
2008-08-30, 13:31:04,VALID,1002.38,VALID,0,VALID,96.0247,VALID,390.184,VALID,24.8716,VALID,98,VALID,1.24766,
2008-08-30, 13:32:04,VALID,1002.37,VALID,0,VALID,96.0476,VALID,382.039,VALID,25.0274,VALID,44,VALID,0.806641,
2008-08-30, 13:33:04,VALID,1002.41,VALID,0,VALID,96.0781,VALID,374.396,VALID,25.2046,VALID,63,VALID,0.590625,
2008-08-30, 13:34:04,VALID,1002.39,VALID,0,VALID,96.101,VALID,368.06,VALID,25.3214,VALID,42,VALID,0.616406,
2008-08-30, 13:35:04,VALID,1002.43,VALID,0,VALID,96.0705,VALID,362.429,VALID,25.3,VALID,64,VALID,0.533203,
2008-08-30, 13:36:04,VALID,1002.46,VALID,0,VALID,96.0629,VALID,356.093,VALID,25.3974,VALID,35,VALID,0.355859,
2008-08-30, 13:37:04,VALID,1002.43,VALID,0,VALID,96.0781,VALID,349.959,VALID,25.5357,VALID,80,VALID,0.6125,
2008-08-30, 13:38:04,VALID,1002.41,VALID,0,VALID,96.0552,VALID,344.73,VALID,25.5941,VALID,41,VALID,0.537109,
2008-08-30, 13:39:04,VALID,1002.35,VALID,0,VALID,96.0095,VALID,339.4,VALID,25.5357,VALID,28,VALID,1.03789,
2008-08-30, 13:40:04,VALID,1002.31,VALID,0,VALID,96.0018,VALID,334.171,VALID,25.4577,VALID,48,VALID,0.441406,
2008-08-30, 13:41:04,VALID,1002.26,VALID,0,VALID,95.9484,VALID,329.042,VALID,25.4967,VALID,26,VALID,0.751172,
2008-08-30, 13:42:04,VALID,1002.24,VALID,0,VALID,95.9561,VALID,323.31,VALID,25.4967,VALID,33,VALID,0.483203,
2008-08-30, 13:43:04,VALID,1002.21,VALID,0,VALID,95.9255,VALID,317.477,VALID,25.4383,VALID,79,VALID,0.895703,
2008-08-30, 13:44:04,VALID,1002.17,VALID,0,VALID,95.9103,VALID,311.645,VALID,25.4753,VALID,74,VALID,0.616016,
2008-08-30, 13:45:04,VALID,1002.19,VALID,0,VALID,95.895,VALID,306.315,VALID,25.5162,VALID,28,VALID,0.775391,
2008-08-30, 13:46:04,VALID,1002.16,VALID,0,VALID,95.895,VALID,301.689,VALID,25.5357,VALID,36,VALID,0.675781,
2008-08-30, 13:47:04,VALID,1002.15,VALID,0,VALID,95.8798,VALID,297.566,VALID,25.5941,VALID,13,VALID,0.771094,
2008-08-30, 13:48:04,VALID,1002.15,VALID,0,VALID,95.8569,VALID,293.744,VALID,25.5532,VALID,47,VALID,0.766797,
2008-08-30, 13:49:04,VALID,1002.19,VALID,0,VALID,95.8645,VALID,277.855,VALID,25.5746,VALID,50,VALID,0.616016,
2008-08-30, 13:50:04,VALID,1002.14,VALID,0,VALID,95.834,VALID,284.694,VALID,25.5941,VALID,41,VALID,0.667578,
2008-08-30, 13:51:04,VALID,1002.14,VALID,0,VALID,95.8416,VALID,278.459,VALID,25.6525,VALID,43,VALID,0.619922,
2008-08-30, 13:52:04,VALID,1002.12,VALID,0,VALID,95.8645,VALID,270.313,VALID,25.7889,VALID,28,VALID,0.487109,
2008-08-30, 13:53:04,VALID,1002.12,VALID,0,VALID,95.8416,VALID,258.95,VALID,25.8668,VALID,2,VALID,0.777344,
2008-08-30, 13:54:04,VALID,1002.11,VALID,0,VALID,95.8111,VALID,242.96,VALID,25.8668,VALID,7,VALID,0.692969,
2008-08-30, 13:55:04,VALID,1002.15,VALID,0,VALID,95.6814,VALID,215.004,VALID,25.6116,VALID,19,VALID,1.33633,
2008-08-30, 13:56:04,VALID,1002.21,VALID,0,VALID,95.6967,VALID,183.729,VALID,25.7304,VALID,21,VALID,0.289453,
2008-08-30, 13:57:04,VALID,1002.31,VALID,0,VALID,95.7043,VALID,149.839,VALID,25.8493,VALID,10,VALID,0.933594,
2008-08-30, 14:01:04,VALID,1002.78,VALID,1.5,VALID,94.2624,VALID,20.9171,VALID,25.2825,VALID,59,VALID,2.64141,
2008-08-30, 14:02:04,VALID,1002.75,VALID,1.5,VALID,93.6979,VALID,22.5261,VALID,24.8151,VALID,35,VALID,1.56719,
2008-08-30, 14:03:04,VALID,1002.44,VALID,1.5,VALID,93.7284,VALID,30.8728,VALID,24.4062,VALID,17,VALID,1.66914,
2008-08-30, 14:04:04,VALID,1002.34,VALID,0.5,VALID,94.1328,VALID,38.2139,VALID,24.1123,VALID,20,VALID,0.786719,
2008-08-30, 14:05:04,VALID,1002.37,VALID,0,VALID,94.5523,VALID,43.5438,VALID,23.9,VALID,56,VALID,0.857031,
2008-08-30, 14:06:04,VALID,1002.48,VALID,0,VALID,94.9872,VALID,50.5832,VALID,23.8027,VALID,19,VALID,1.66367,
2008-08-30, 14:07:04,VALID,1002.51,VALID,0,VALID,94.7583,VALID,62.1479,VALID,23.5885,VALID,38,VALID,1.93711,
2008-08-30, 14:08:04,VALID,1002.42,VALID,0,VALID,94.5752,VALID,70.6957,VALID,23.3939,VALID,45,VALID,1.29219,
2008-08-30, 14:09:04,VALID,1002.4,VALID,0,VALID,94.949,VALID,78.3385,VALID,23.2966,VALID,12,VALID,0.848047,
2008-08-30, 14:10:04,VALID,1002.39,VALID,0,VALID,95.3915,VALID,89.6016,VALID,23.2948,VALID,13,VALID,1.02656,
2008-08-30, 14:11:04,VALID,1002.39,VALID,0,VALID,95.2466,VALID,100.462,VALID,23.2187,VALID,34,VALID,1.81367,
2008-08-30, 14:12:04,VALID,1002.36,VALID,0,VALID,95.2466,VALID,103.278,VALID,23.1798,VALID,2,VALID,1.50742,
2008-08-30, 14:13:04,VALID,1002.34,VALID,0,VALID,95.3915,VALID,99.859,VALID,23.178,VALID,25,VALID,2.06172,
2008-08-30, 14:14:04,VALID,1002.36,VALID,0,VALID,95.4983,VALID,90.8083,VALID,23.1993,VALID,32,VALID,1.74492,
2008-08-30, 14:15:04,VALID,1002.42,VALID,0,VALID,95.6356,VALID,78.8413,VALID,23.2594,VALID,6,VALID,1.53242,
2008-08-30, 14:16:04,VALID,1002.4,VALID,0,VALID,95.6204,VALID,64.3603,VALID,23.2364,VALID,21,VALID,1.77461,
2008-08-30, 14:17:04,VALID,1002.37,VALID,0,VALID,95.5288,VALID,52.5944,VALID,23.2577,VALID,55,VALID,2.39531,
2008-08-30, 14:18:04,VALID,1002.38,VALID,0,VALID,95.6356,VALID,47.868,VALID,23.2559,VALID,26,VALID,1.16484,
2008-08-30, 14:19:04,VALID,1002.4,VALID,0,VALID,95.689,VALID,47.5663,VALID,23.2966,VALID,50,VALID,2.04922,
2008-08-30, 14:20:04,VALID,1002.25,VALID,0.5,VALID,95.6128,VALID,59.2316,VALID,23.2948,VALID,24,VALID,3.08672,
2008-08-30, 14:21:04,VALID,1002.23,VALID,0.5,VALID,95.6509,VALID,72.5059,VALID,23.3143,VALID,27,VALID,2.12656,
2008-08-30, 14:22:04,VALID,1002.18,VALID,0,VALID,95.6662,VALID,84.7746,VALID,23.3337,VALID,44,VALID,2.22344,
2008-08-30, 14:23:04,VALID,1002.16,VALID,0,VALID,95.7196,VALID,92.3168,VALID,23.4134,VALID,47,VALID,3.0957,
2008-08-30, 14:24:04,VALID,1002.14,VALID,0,VALID,95.7882,VALID,97.6466,VALID,23.4912,VALID,26,VALID,2.04063,
2008-08-30, 14:25:04,VALID,1002.11,VALID,0,VALID,95.6967,VALID,101.468,VALID,23.5496,VALID,14,VALID,3.55039,
2008-08-30, 14:26:04,VALID,1002.17,VALID,0,VALID,95.6967,VALID,103.882,VALID,23.6275,VALID,36,VALID,3.29805,
2008-08-30, 14:27:04,VALID,1002.11,VALID,0,VALID,95.6967,VALID,105.39,VALID,23.6859,VALID,46,VALID,1.75391,
2008-08-30, 14:28:04,VALID,1002.14,VALID,0,VALID,95.5594,VALID,107.301,VALID,23.7053,VALID,45,VALID,3.76563,
2008-08-30, 14:29:04,VALID,1002.03,VALID,0,VALID,95.5822,VALID,108.709,VALID,23.7443,VALID,67,VALID,3.91523,
2008-08-30, 14:30:04,VALID,1002.03,VALID,0,VALID,95.6128,VALID,110.016,VALID,23.7832,VALID,39,VALID,2.15117,
2008-08-30, 14:38:04,VALID,1002.04,VALID,0,VALID,95.773,VALID,107.602,VALID,23.9779,INVALID,360,INVALID,0,
2008-08-30, 14:39:04,VALID,1002.04,VALID,0,VALID,95.7501,VALID,107.2,VALID,23.9371,VALID,1,VALID,0.785937,
2008-08-30, 14:40:04,VALID,1002.05,VALID,0,VALID,95.7043,VALID,107.1,VALID,23.9973,VALID,342,VALID,1.32031,
2008-08-30, 14:41:04,VALID,1002.08,VALID,0,VALID,95.7577,VALID,107.703,VALID,23.9973,VALID,357,VALID,1.04609,
2008-08-30, 14:42:04,VALID,1002.04,VALID,0,VALID,95.7424,VALID,109.01,VALID,23.9955,VALID,351,VALID,1.45469,
2008-08-30, 14:43:04,VALID,1002.03,VALID,0,VALID,95.7959,VALID,111.625,VALID,24.0557,VALID,14,VALID,1.76875,
2008-08-30, 14:44:04,VALID,1002.04,VALID,0,VALID,95.7501,VALID,115.044,VALID,24.0557,VALID,353,VALID,1.97773,
2008-08-30, 14:45:04,VALID,1002.02,VALID,0,VALID,95.7348,VALID,118.865,VALID,24.0752,VALID,17,VALID,1.12539,
2008-08-30, 14:46:04,VALID,1002.03,VALID,0,VALID,95.7882,VALID,122.486,VALID,24.1123,VALID,349,VALID,1.34219,
2008-08-30, 14:47:04,VALID,1002.03,VALID,0,VALID,95.8187,VALID,125.804,VALID,24.1336,VALID,353,VALID,0.833594,
2008-08-30, 14:48:04,VALID,1001.98,VALID,0,VALID,95.8493,VALID,128.821,VALID,24.1726,VALID,23,VALID,0.430859,
2008-08-30, 14:49:04,VALID,1001.99,VALID,0,VALID,95.8645,VALID,132.341,VALID,24.192,VALID,336,VALID,1.17148,
2008-08-30, 14:50:04,VALID,1001.98,VALID,0,VALID,95.7577,VALID,135.861,VALID,24.1123,VALID,350,VALID,1.46055,
2008-08-30, 14:51:04,VALID,1002.01,VALID,0,VALID,95.6051,VALID,139.179,VALID,24.0752,VALID,343,VALID,1.23086,
2008-08-30, 14:52:04,VALID,1002.02,VALID,0,VALID,95.6356,VALID,141.291,VALID,24.0539,VALID,360,VALID,1.4082,
2008-08-30, 14:53:04,VALID,1001.97,VALID,0,VALID,95.5517,VALID,142.297,VALID,24.0752,VALID,346,VALID,1.60469,
2008-08-30, 14:54:04,VALID,1001.99,VALID,0,VALID,95.6585,VALID,142.095,VALID,24.0734,VALID,337,VALID,0.880078,
2008-08-30, 14:55:04,VALID,1001.98,VALID,0,VALID,95.4526,VALID,140.989,VALID,24.0363,VALID,27,VALID,1.30586,
2008-08-30, 14:56:04,VALID,1001.99,VALID,0,VALID,95.4526,VALID,140.688,VALID,24.0363,VALID,348,VALID,1.71719,
2008-08-30, 14:57:04,VALID,1001.96,VALID,0,VALID,95.1398,VALID,141.492,VALID,23.9371,VALID,342,VALID,2.33984,
2008-08-30, 14:58:04,VALID,1001.95,VALID,0,VALID,95.2084,VALID,143.101,VALID,23.9584,VALID,343,VALID,1.89922,
2008-08-30, 14:59:04,VALID,1001.96,VALID,0,VALID,95.3839,VALID,145.213,VALID,23.9779,VALID,350,VALID,1.04922,
2008-08-30, 15:00:04,VALID,1001.96,VALID,0,VALID,95.2542,VALID,147.526,VALID,23.9177,VALID,10,VALID,1.98359,
2008-08-30, 15:01:04,VALID,1001.94,VALID,0,VALID,95.4907,VALID,150.14,VALID,24.0168,VALID,298,VALID,1.00586,
2008-08-30, 15:02:04,VALID,1001.89,VALID,0,VALID,95.3915,VALID,152.956,VALID,23.9973,VALID,358,VALID,1.44219,
2008-08-30, 15:03:04,VALID,1001.89,VALID,0,VALID,95.3915,VALID,156.074,VALID,24.0168,VALID,355,VALID,1.21289,
2008-08-30, 15:04:04,VALID,1001.87,VALID,0,VALID,95.4526,VALID,159.795,VALID,24.0363,VALID,352,VALID,1.17305,
2008-08-30, 15:05:04,VALID,1001.88,VALID,0,VALID,95.3305,VALID,164.32,VALID,23.9761,VALID,354,VALID,0.913281,
2008-08-30, 15:06:04,VALID,1001.87,VALID,0,VALID,95.5136,VALID,168.946,VALID,24.0557,VALID,352,VALID,1.0125,
2008-08-30, 15:07:04,VALID,1001.87,VALID,0,VALID,95.5441,VALID,173.371,VALID,24.1336,VALID,352,VALID,1.52969,
2008-08-30, 15:08:04,VALID,1001.88,VALID,0,VALID,95.3991,VALID,177.192,VALID,24.0557,VALID,355,VALID,1.02266,
2008-08-30, 15:09:04,VALID,1001.89,VALID,0,VALID,95.4449,VALID,180.712,VALID,24.0734,VALID,346,VALID,0.771484,
2008-08-30, 15:10:04,VALID,1001.9,VALID,0,VALID,95.5212,VALID,184.231,VALID,24.1142,VALID,357,VALID,0.977344,
2008-08-30, 15:11:04,VALID,1001.89,VALID,0,VALID,95.5517,VALID,187.751,VALID,24.1513,VALID,355,VALID,0.778906,
2008-08-30, 15:12:04,VALID,1001.86,VALID,0,VALID,95.3991,VALID,191.271,VALID,24.1336,VALID,1,VALID,1.22617,
2008-08-30, 15:13:04,VALID,1001.89,VALID,0,VALID,95.0787,VALID,194.086,VALID,24.0363,VALID,21,VALID,2.35625,
2008-08-30, 15:14:04,VALID,1001.91,VALID,0,VALID,95.3,VALID,196.098,VALID,24.0947,VALID,360,VALID,1.35391,
2008-08-30, 15:15:04,VALID,1001.9,VALID,0,VALID,95.4144,VALID,197.305,VALID,24.1318,VALID,5,VALID,1.09141,
2008-08-30, 15:16:04,VALID,1001.9,VALID,0,VALID,95.4068,VALID,197.506,VALID,24.1726,VALID,1,VALID,1.18359,
2008-08-30, 15:17:04,VALID,1001.92,VALID,0,VALID,95.4907,VALID,197.204,VALID,24.2699,VALID,344,VALID,1.20313,
2008-08-30, 15:18:04,VALID,1001.89,VALID,0,VALID,95.4602,VALID,196.902,VALID,24.2291,VALID,11,VALID,1.21328,
2008-08-30, 15:19:04,VALID,1001.93,VALID,0,VALID,95.3381,VALID,196.701,VALID,24.231,VALID,347,VALID,1.04922,
2008-08-30, 15:20:04,VALID,1001.9,VALID,0,VALID,95.3381,VALID,196.399,VALID,24.2504,VALID,353,VALID,1.21406,
2008-08-30, 15:21:04,VALID,1001.85,VALID,0,VALID,95.1474,VALID,195.595,VALID,24.2115,VALID,360,VALID,1.78945,
2008-08-30, 15:22:04,VALID,1001.87,VALID,0,VALID,95.3305,VALID,194.187,VALID,24.2504,VALID,360,VALID,1.09922,
2008-08-30, 15:24:04,VALID,1001.87,VALID,0,VALID,95.0253,VALID,189.963,VALID,24.2115,VALID,358,VALID,1.27969,
2008-08-30, 15:25:04,VALID,1001.89,VALID,0,VALID,95.0406,VALID,187.65,VALID,24.2699,VALID,347,VALID,1.66641,
2008-08-30, 15:26:04,VALID,1001.89,VALID,0,VALID,94.9338,VALID,185.136,VALID,24.2328,VALID,356,VALID,1.82031,
2008-08-30, 15:27:04,VALID,1001.87,VALID,0,VALID,94.949,VALID,182.522,VALID,24.2097,VALID,356,VALID,1.65859,
2008-08-30, 15:28:04,VALID,1001.9,VALID,0,VALID,94.8194,VALID,180.108,VALID,24.1726,VALID,346,VALID,1.71367,
2008-08-30, 15:29:04,VALID,1001.89,VALID,0,VALID,95.0024,VALID,177.594,VALID,24.2504,VALID,348,VALID,1.00508,
2008-08-30, 15:30:04,VALID,1001.92,VALID,0,VALID,94.7965,VALID,175.281,VALID,24.2115,VALID,351,VALID,1.74883,
2008-08-30, 15:31:04,VALID,1001.88,VALID,0,VALID,94.949,VALID,173.471,VALID,24.2504,VALID,353,VALID,1.4207,
2008-08-30, 15:32:04,VALID,1001.9,VALID,0,VALID,95.0253,VALID,172.264,VALID,24.2894,VALID,1,VALID,1.29336,
2008-08-30, 15:33:04,VALID,1001.89,VALID,0,VALID,94.7431,VALID,171.661,VALID,24.2504,VALID,350,VALID,2.11836,
2008-08-30, 15:34:04,VALID,1001.9,VALID,0,VALID,94.7965,VALID,170.856,VALID,24.2699,VALID,354,VALID,1.82852,
2008-08-30, 15:35:04,VALID,1001.89,VALID,0,VALID,95.0253,VALID,169.549,VALID,24.3283,VALID,345,VALID,1.79336,
2008-08-30, 15:36:04,VALID,1001.87,VALID,0,VALID,95.033,VALID,168.041,VALID,24.3478,VALID,352,VALID,1.07773,
2008-08-30, 15:37:04,VALID,1001.86,VALID,0,VALID,94.8728,VALID,166.532,VALID,24.307,VALID,2,VALID,1.53633,
2008-08-30, 15:38:04,VALID,1001.85,VALID,0,VALID,95.1321,VALID,165.024,VALID,24.4062,VALID,11,VALID,0.717969,
2008-08-30, 15:39:04,VALID,1001.87,VALID,0,VALID,94.8346,VALID,163.616,VALID,24.3478,VALID,355,VALID,1.27539,
2008-08-30, 15:40:04,VALID,1001.85,VALID,0,VALID,94.9872,VALID,162.309,VALID,24.4062,VALID,352,VALID,1.06211,
2008-08-30, 15:41:04,VALID,1001.86,VALID,0,VALID,94.6897,VALID,161.001,VALID,24.3886,VALID,353,VALID,1.18047,
2008-08-30, 15:42:04,VALID,1001.81,VALID,0,VALID,94.7125,VALID,159.996,VALID,24.3673,VALID,1,VALID,1.15859,
2008-08-30, 15:43:04,VALID,1001.81,VALID,0,VALID,94.5829,VALID,158.889,VALID,24.3478,VALID,354,VALID,1.91328,
2008-08-30, 15:44:04,VALID,1001.85,VALID,0,VALID,94.7354,VALID,157.984,VALID,24.3673,VALID,356,VALID,1.15781,
2008-08-30, 15:45:04,VALID,1001.84,VALID,0,VALID,94.949,VALID,156.979,VALID,24.4257,VALID,3,VALID,0.723437,
2008-08-30, 15:46:04,VALID,1001.84,VALID,0,VALID,94.7812,VALID,156.375,VALID,24.4275,VALID,359,VALID,0.996094,
2008-08-30, 15:47:04,VALID,1001.82,VALID,0,VALID,94.6057,VALID,155.772,VALID,24.3849,VALID,344,VALID,1.15586,
2008-08-30, 15:48:04,VALID,1001.88,VALID,0,VALID,94.7431,VALID,155.169,VALID,24.4451,VALID,354,VALID,1.13242,
2008-08-30, 15:49:04,VALID,1001.88,VALID,0,VALID,94.7049,VALID,154.766,VALID,24.4257,VALID,355,VALID,1.20977,
2008-08-30, 15:50:04,VALID,1001.88,VALID,0,VALID,94.7354,VALID,154.565,VALID,24.4646,VALID,351,VALID,1.12656,
2008-08-30, 15:51:04,VALID,1001.87,VALID,0,VALID,94.621,VALID,154.565,VALID,24.4451,VALID,360,VALID,1.36953,
2008-08-30, 15:52:04,VALID,1001.87,VALID,0,VALID,94.7736,VALID,154.565,VALID,24.4665,VALID,8,VALID,1.16836,
2008-08-30, 15:53:04,VALID,1001.85,VALID,0,VALID,94.6439,VALID,154.766,VALID,24.4646,VALID,348,VALID,1.02266,
2008-08-30, 15:54:04,VALID,1001.87,VALID,0,VALID,94.4913,VALID,154.867,VALID,24.447,VALID,359,VALID,1.87305,
2008-08-30, 15:55:04,VALID,1001.84,VALID,0,VALID,94.4989,VALID,155.169,VALID,24.4257,VALID,350,VALID,1.25547,
2008-08-30, 15:56:04,VALID,1001.83,VALID,0,VALID,94.4761,VALID,155.37,VALID,24.4257,VALID,355,VALID,1.29688,
2008-08-30, 15:57:04,VALID,1001.85,VALID,0,VALID,94.5066,VALID,155.671,VALID,24.4451,VALID,337,VALID,1.2,
2008-08-30, 15:58:04,VALID,1001.85,VALID,0,VALID,94.4532,VALID,155.772,VALID,24.4257,VALID,357,VALID,1.17578,
2008-08-30, 15:59:04,VALID,1001.87,VALID,0,VALID,94.5752,VALID,156.074,VALID,24.4646,VALID,3,VALID,1.09336,
2008-08-30, 16:00:04,VALID,1001.83,VALID,0,VALID,94.4989,VALID,156.275,VALID,24.4451,VALID,354,VALID,1.18438,
2008-08-30, 16:01:04,VALID,1001.83,VALID,0,VALID,94.3235,VALID,156.476,VALID,24.4451,VALID,351,VALID,1.34023,
2008-08-30, 16:02:04,VALID,1001.85,VALID,0,VALID,94.7125,VALID,156.577,VALID,24.4841,VALID,358,VALID,0.842578,
2008-08-30, 16:03:04,VALID,1001.83,VALID,0,VALID,94.8728,VALID,156.677,VALID,24.562,VALID,358,VALID,0.966406,
2008-08-30, 16:04:04,VALID,1001.83,VALID,0,VALID,94.8651,VALID,156.375,VALID,24.5833,VALID,2,VALID,0.96875,
2008-08-30, 16:05:04,VALID,1001.81,VALID,0,VALID,94.5829,VALID,155.772,VALID,24.562,VALID,360,VALID,1.07305,
2008-08-30, 16:06:04,VALID,1001.82,VALID,0,VALID,94.3845,VALID,155.169,VALID,24.5425,VALID,358,VALID,1.48945,
2008-08-30, 16:07:04,VALID,1001.8,VALID,0,VALID,94.4455,VALID,154.565,VALID,24.5833,VALID,360,VALID,1.18555,
2008-08-30, 16:08:04,VALID,1001.81,VALID,0,VALID,94.5142,VALID,153.861,VALID,24.562,VALID,12,VALID,0.803125,
2008-08-30, 16:09:04,VALID,1001.77,VALID,0,VALID,94.5295,VALID,153.358,VALID,24.5814,VALID,350,VALID,0.994141,
2008-08-30, 16:10:04,VALID,1001.76,VALID,0,VALID,94.6363,VALID,152.856,VALID,24.6204,VALID,11,VALID,1.31953,
2008-08-30, 16:11:04,VALID,1001.74,VALID,0,VALID,94.3387,VALID,152.252,VALID,24.6204,VALID,352,VALID,1.16133,
2008-08-30, 16:12:04,VALID,1001.74,VALID,0,VALID,94.5523,VALID,151.448,VALID,24.6204,VALID,3,VALID,1.11055,
2008-08-30, 16:13:04,VALID,1001.71,VALID,0,VALID,94.4532,VALID,150.744,VALID,24.6612,VALID,345,VALID,1.35078,
2008-08-30, 16:14:04,VALID,1001.71,VALID,0,VALID,94.4074,VALID,149.839,VALID,24.6398,VALID,354,VALID,0.687891,
2008-08-30, 16:15:04,VALID,1001.69,VALID,0,VALID,94.4074,VALID,148.934,VALID,24.7001,VALID,342,VALID,1.11328,
2008-08-30, 16:16:04,VALID,1001.66,VALID,0,VALID,94.3769,VALID,147.928,VALID,24.6593,VALID,343,VALID,0.953906,
2008-08-30, 16:17:04,VALID,1001.66,VALID,0,VALID,94.5066,VALID,146.822,VALID,24.6788,VALID,346,VALID,0.603125,
2008-08-30, 16:18:04,VALID,1001.66,VALID,0,VALID,94.7431,VALID,145.716,VALID,24.7567,VALID,356,VALID,0.783984,
2008-08-30, 16:19:04,VALID,1001.63,VALID,0,VALID,94.56,VALID,144.408,VALID,24.7567,VALID,355,VALID,0.995703,
2008-08-30, 16:20:04,VALID,1001.6,VALID,0,VALID,94.4761,VALID,143.001,VALID,24.778,VALID,5,VALID,1.30508,
2008-08-30, 16:21:04,VALID,1001.62,VALID,0,VALID,94.3998,VALID,141.391,VALID,24.7567,VALID,356,VALID,1.44336,
2008-08-30, 16:22:04,VALID,1001.61,VALID,0,VALID,94.1862,VALID,139.783,VALID,24.7177,VALID,13,VALID,1.70234,
2008-08-30, 16:23:04,VALID,1001.58,VALID,0,VALID,94.3692,VALID,138.173,VALID,24.7743,VALID,350,VALID,0.512109,
2008-08-30, 16:24:04,VALID,1001.51,VALID,0,VALID,94.4455,VALID,136.464,VALID,24.7937,VALID,349,VALID,0.942187,
2008-08-30, 16:25:04,VALID,1001.52,VALID,0,VALID,94.3082,VALID,134.754,VALID,24.8151,VALID,355,VALID,1.58438,
2008-08-30, 16:26:04,VALID,1001.48,VALID,0,VALID,94.1404,VALID,132.944,VALID,24.7743,VALID,16,VALID,1.00273,
2008-08-30, 16:27:05,VALID,1001.46,VALID,0,VALID,94.2472,VALID,131.134,VALID,24.7919,VALID,352,VALID,0.884766,
2008-08-30, 16:28:05,VALID,1001.45,VALID,0,VALID,94.4532,VALID,129.223,VALID,24.8327,VALID,355,VALID,1.33984,
2008-08-30, 16:29:05,VALID,1001.46,VALID,0,VALID,94.1099,VALID,127.112,VALID,24.854,VALID,346,VALID,1.18633,